Regional Weather Roundup
Issued by NWS

Home | Current Version | Previous Version | Graphics & Text | Print | Product List | Glossary On
Versions: 1 2 3 4 5 6 7 8 9 10 11 12 13 14 15 16 17 18 19 20 21 22 23 24 25 26 27 28 29 30 31 32 33 34 35 36 37 38 39 40 41 42 43 44 45 46 47 48 49 50
000
ASUS45 KABQ 010310
RWRNM
NEW MEXICO REGIONAL WEATHER ROUNDUP
NATIONAL WEATHER SERVICE ALBUQUERQUE NM
900 PM MDT MON AUG 31 2015

NOTE: "FAIR" MEANS FEW OR NO CLOUDS BELOW 12,000 FEET AGL WITH NO
       SIGNIFICANT WEATHER OR OBSTRUCTIONS TO VISION.

      THIS PRODUCT IS RELEASED AS TWO VERSIONS.  ONE VERSION NEAR
      THE TOP OF THE HOUR CONTAINING PRELIMINARY DATA FROM ALBUQUERQUE
      AND OTHER STATIONS.  A FINAL VERSION WITH ADDITIONAL DATA IS
      ISSUED ABOUT 10 MINUTES AFTER THE HOUR.

NMZ501-503-504-510>518-010400-
NORTHWEST PLATEAU/NORTHCENTRAL MOUNTAINS

CITY           SKY/WX    TMP DP  RH WIND       PRES   REMARKS
FARMINGTON     CLEAR     75  47  36 W8        30.13R
LOS ALAMOS     MOCLDY    71  46  41 CALM      30.26R
SANTA FE       MOCLDY    72  45  37 W7        30.18R
TAOS           MOCLDY    61  45  55 N8        30.26R
ANGEL FIRE     FAIR      53  50  90 SE6       30.37R

$$
NMZ402-403-502-505>509-010400-
WESTCENTRAL MOUNTAINS/SOUTHWEST MOUNTAINS

CITY           SKY/WX    TMP DP  RH WIND       PRES   REMARKS
GALLUP         CLOUDY    64  51  62 E12       30.28R
GRANTS         CLOUDY    66  49  55 N3        30.28R
SILVER CITY      N/A     72  50  46 CALM      30.17R

$$
NMZ407-409-411-412-010400-
SOUTHERN DESERTS

CITY           SKY/WX    TMP DP  RH WIND       PRES   REMARKS
DEMING         MOCLDY    80  50  34 N10       30.07R
LAS CRUCES     PTCLDY    83  44  25 NW13G20   30.06R
HOLLOMAN AFB   PTCLDY    84  49  29 NE9       29.99R
ALAMOGORDO     PTCLDY    82  48  30 N9        30.02R
T OR C         MOCLDY    77  50  38 NW13      30.07R

$$
NMZ519>523-010400-
CENTRAL VALLEYS/CENTRAL HIGHLANDS

CITY           SKY/WX    TMP DP  RH WIND       PRES   REMARKS
ALBUQUERQUE    MOCLDY    79  45  29 NW7       30.14R
DOUBLE EAGLE   MOCLDY    70  48  46 N6        30.17R
MORIARTY ARPT  FAIR      68  46  45 S3        30.19R
CLINES CORNERS MOCLDY    66  43  43 W10       30.23R
BELEN          FAIR      75  45  33 CALM      30.14R
SOCORRO        FAIR      77  48  36 CALM      30.08R

$$
NMZ524>526-539-540-010400-
SOUTHCENTRAL MOUNTAINS

CITY           SKY/WX    TMP DP  RH WIND       PRES   REMARKS
RUIDOSO        PTCLDY    72  48  43 MISG      30.27R

$$
NMZ527>531-010400-
NORTHEAST HIGHLANDS/NORTHEAST PLAINS

CITY           SKY/WX    TMP DP  RH WIND       PRES   REMARKS
LAS VEGAS      CLOUDY    65  51  60 N5        30.22R
RATON          MOCLDY    64  47  53 NW6       30.17R
CLAYTON        LGT RAIN  75  51  43 SE12      30.07R

$$
NMZ532>537-010400-
EASTCENTRAL PLAINS

CITY           SKY/WX    TMP DP  RH WIND       PRES   REMARKS
TUCUMCARI      PTCLDY    82  48  30 S14       30.00R
CANNON AFB     CLEAR     75  49  40 S8        30.06R
CLOVIS AIRPORT CLEAR     75  48  38 S12       30.07R

$$
NMZ028-029-538-010400-
SOUTHEAST PLAINS

CITY           SKY/WX    TMP DP  RH WIND       PRES   REMARKS
ROSWELL        CLEAR     80  50  34 SE8       29.99R
ARTESIA        PTCLDY    82  48  30 SE10      30.00R
CARLSBAD       NOT AVBL
HOBBS          CLEAR     75  52  43 CALM      30.05R


$$


USA.gov is the U.S. government's official web portal to all federal, state and local government web resources and services.